owner,sensor,date,latitude,longitude,relative_humidity,qcFlag 
COMPS,ioos:station:USF.COMPS:C12:1,2016-04-01T02:05:00Z,27.4980,-83.7220,25.92,1111122 
COMPS,ioos:station:USF.COMPS:C12:1,2016-04-01T03:35:00Z,27.4980,-83.7220,22.05,1111122 
COMPS,ioos:station:USF.COMPS:C12:1,2016-04-01T04:05:00Z,27.4980,-83.7220,20.59,1111122 
COMPS,ioos:station:USF.COMPS:C12:1,2016-04-01T05:05:00Z,27.4980,-83.7220,38.81,1111122 
COMPS,ioos:station:USF.COMPS:C12:1,2016-04-01T06:05:00Z,27.4980,-83.7220,67.23,1111122 
COMPS,ioos:station:USF.COMPS:C12:1,2016-04-01T07:05:00Z,27.4980,-83.7220,98.26,1111122 
COMPS,ioos:station:USF.COMPS:C12:1,2016-04-01T07:35:00Z,27.4980,-83.7220,97.49,1111122 
COMPS,ioos:station:USF.COMPS:C12:1,2016-04-01T08:05:00Z,27.4980,-83.7220,97.6,1111122 
COMPS,ioos:station:USF.COMPS:C12:1,2016-04-01T08:35:00Z,27.4980,-83.7220,97.78,1111122 
COMPS,ioos:station:USF.COMPS:C12:1,2016-04-01T09:05:00Z,27.4980,-83.7220,96.87,1111122 
COMPS,ioos:station:USF.COMPS:C12:1,2016-04-01T09:35:00Z,27.4980,-83.7220,97.69,1111122 
COMPS,ioos:station:USF.COMPS:C12:1,2016-04-01T10:05:00Z,27.4980,-83.7220,96.64,1111122 
COMPS,ioos:station:USF.COMPS:C12:1,2016-04-01T10:35:00Z,27.4980,-83.7220,98.17,1111122 
COMPS,ioos:station:USF.COMPS:C12:1,2016-04-01T11:05:00Z,27.4980,-83.7220,97.76,1111122 
COMPS,ioos:station:USF.COMPS:C12:1,2016-04-01T11:35:00Z,27.4980,-83.7220,97.99,1111122 
COMPS,ioos:station:USF.COMPS:C12:1,2016-04-01T12:05:00Z,27.4980,-83.7220,99.13,1111122 
COMPS,ioos:station:USF.COMPS:C12:1,2016-04-01T12:35:00Z,27.4980,-83.7220,98.75,1111122 
COMPS,ioos:station:USF.COMPS:C12:1,2016-04-01T13:05:00Z,27.4980,-83.7220,97.6,1111122 
COMPS,ioos:station:USF.COMPS:C12:1,2016-04-01T13:35:00Z,27.4980,-83.7220,98.92,1111122 
COMPS,ioos:station:USF.COMPS:C12:1,2016-04-01T14:05:00Z,27.4980,-83.7220,98.96,1111122 
COMPS,ioos:station:USF.COMPS:C12:1,2016-04-01T14:35:00Z,27.4980,-83.7220,98.67,1111122 
COMPS,ioos:station:USF.COMPS:C12:1,2016-04-01T15:05:00Z,27.4980,-83.7220,99.52,1111122 
COMPS,ioos:station:USF.COMPS:C12:1,2016-04-01T15:35:00Z,27.4980,-83.7220,99.09,1111122 
COMPS,ioos:station:USF.COMPS:C12:1,2016-04-01T16:05:00Z,27.4980,-83.7220,98.79,1111122 
COMPS,ioos:station:USF.COMPS:C12:1,2016-04-01T16:35:00Z,27.4980,-83.7220,98.33,1111122 
COMPS,ioos:station:USF.COMPS:C12:1,2016-04-01T17:05:00Z,27.4980,-83.7220,98.98,1111122 
COMPS,ioos:station:USF.COMPS:C12:1,2016-04-01T17:35:00Z,27.4980,-83.7220,98.4,1111122 
COMPS,ioos:station:USF.COMPS:C12:1,2016-04-01T18:05:00Z,27.4980,-83.7220,99.0,1111122 
COMPS,ioos:station:USF.COMPS:C12:1,2016-04-01T18:35:00Z,27.4980,-83.7220,97.89,1111122 
COMPS,ioos:station:USF.COMPS:C12:1,2016-04-01T19:05:00Z,27.4980,-83.7220,97.44,1111122 
COMPS,ioos:station:USF.COMPS:C12:1,2016-04-01T19:35:00Z,27.4980,-83.7220,99.32,1111122 
COMPS,ioos:station:USF.COMPS:C12:1,2016-04-01T20:05:00Z,27.4980,-83.7220,99.97,1111122 
COMPS,ioos:station:USF.COMPS:C12:1,2016-04-01T20:35:00Z,27.4980,-83.7220,98.2,1111122 
COMPS,ioos:station:USF.COMPS:C12:1,2016-04-01T21:05:00Z,27.4980,-83.7220,100.62,1111122 
COMPS,ioos:station:USF.COMPS:C12:1,2016-04-01T21:35:00Z,27.4980,-83.7220,97.99,1111122 
COMPS,ioos:station:USF.COMPS:C12:1,2016-04-01T22:05:00Z,27.4980,-83.7220,98.57,1111122 
COMPS,ioos:station:USF.COMPS:C12:1,2016-04-01T22:35:00Z,27.4980,-83.7220,96.8,1111122 
COMPS,ioos:station:USF.COMPS:C12:1,2016-04-01T23:05:00Z,27.4980,-83.7220,97.89,1111122 
COMPS,ioos:station:USF.COMPS:C12:1,2016-04-01T23:35:00Z,27.4980,-83.7220,98.21,1111122 
COMPS,ioos:station:USF.COMPS:C12:1,2016-04-02T00:05:00Z,27.4980,-83.7220,98.89,1111122 
COMPS,ioos:station:USF.COMPS:C12:1,2016-04-02T00:35:00Z,27.4980,-83.7220,97.75,1111122 
COMPS,ioos:station:USF.COMPS:C12:1,2016-04-02T01:05:00Z,27.4980,-83.7220,98.13,1111122 
COMPS,ioos:station:USF.COMPS:C12:1,2016-04-02T01:35:00Z,27.4980,-83.7220,99.59,1111122 
COMPS,ioos:station:USF.COMPS:C12:1,2016-04-02T02:05:00Z,27.4980,-83.7220,98.27,1111122 
COMPS,ioos:station:USF.COMPS:C12:1,2016-04-02T02:35:00Z,27.4980,-83.7220,98.56,1111122 
COMPS,ioos:station:USF.COMPS:C12:1,2016-04-02T03:05:00Z,27.4980,-83.7220,96.95,1111122 
COMPS,ioos:station:USF.COMPS:C12:1,2016-04-02T03:35:00Z,27.4980,-83.7220,97.9,1111122 
COMPS,ioos:station:USF.COMPS:C12:1,2016-04-02T04:05:00Z,27.4980,-83.7220,97.49,1111122 
COMPS,ioos:station:USF.COMPS:C12:1,2016-04-02T04:35:00Z,27.4980,-83.7220,98.97,1111122 
COMPS,ioos:station:USF.COMPS:C12:1,2016-04-02T05:05:00Z,27.4980,-83.7220,97.14,1111122 
COMPS,ioos:station:USF.COMPS:C12:1,2016-04-02T05:35:00Z,27.4980,-83.7220,98.15,1111122 
COMPS,ioos:station:USF.COMPS:C12:1,2016-04-02T06:05:00Z,27.4980,-83.7220,98.39,1111122 
COMPS,ioos:station:USF.COMPS:C12:1,2016-04-02T06:35:00Z,27.4980,-83.7220,96.47,1111122 
COMPS,ioos:station:USF.COMPS:C12:1,2016-04-02T07:05:00Z,27.4980,-83.7220,96.39,1111122 
COMPS,ioos:station:USF.COMPS:C12:1,2016-04-02T07:35:00Z,27.4980,-83.7220,97.01,1111122 
COMPS,ioos:station:USF.COMPS:C12:1,2016-04-02T08:05:00Z,27.4980,-83.7220,98.87,1111122 
COMPS,ioos:station:USF.COMPS:C12:1,2016-04-02T08:35:00Z,27.4980,-83.7220,99.01,1111122 
COMPS,ioos:station:USF.COMPS:C12:1,2016-04-02T09:05:00Z,27.4980,-83.7220,96.99,1111122 
COMPS,ioos:station:USF.COMPS:C12:1,2016-04-02T09:35:00Z,27.4980,-83.7220,98.46,1111122 
COMPS,ioos:station:USF.COMPS:C12:1,2016-04-02T10:05:00Z,27.4980,-83.7220,97.62,1111122 
COMPS,ioos:station:USF.COMPS:C12:1,2016-04-02T10:35:00Z,27.4980,-83.7220,99.71,1111122 
COMPS,ioos:station:USF.COMPS:C12:1,2016-04-02T11:05:00Z,27.4980,-83.7220,98.34,1111122 
COMPS,ioos:station:USF.COMPS:C12:1,2016-04-02T11:35:00Z,27.4980,-83.7220,99.17,1111122 
COMPS,ioos:station:USF.COMPS:C12:1,2016-04-02T12:05:00Z,27.4980,-83.7220,98.21,1111122 
COMPS,ioos:station:USF.COMPS:C12:1,2016-04-02T12:35:00Z,27.4980,-83.7220,98.68,1111122 
COMPS,ioos:station:USF.COMPS:C12:1,2016-04-02T13:05:00Z,27.4980,-83.7220,98.33,1111122 
COMPS,ioos:station:USF.COMPS:C12:1,2016-04-02T13:35:00Z,27.4980,-83.7220,99.19,1111122 
COMPS,ioos:station:USF.COMPS:C12:1,2016-04-02T14:05:00Z,27.4980,-83.7220,99.47,1111122 
COMPS,ioos:station:USF.COMPS:C12:1,2016-04-02T14:35:00Z,27.4980,-83.7220,96.85,1111122 
COMPS,ioos:station:USF.COMPS:C12:1,2016-04-02T15:05:00Z,27.4980,-83.7220,98.04,1111122 
COMPS,ioos:station:USF.COMPS:C12:1,2016-04-02T15:35:00Z,27.4980,-83.7220,100.09,1111122 
COMPS,ioos:station:USF.COMPS:C12:1,2016-04-02T16:05:00Z,27.4980,-83.7220,99.79,1111122 
COMPS,ioos:station:USF.COMPS:C12:1,2016-04-02T16:35:00Z,27.4980,-83.7220,100.06,1111122 
COMPS,ioos:station:USF.COMPS:C12:1,2016-04-02T17:05:00Z,27.4980,-83.7220,100.52,1111122 
COMPS,ioos:station:USF.COMPS:C12:1,2016-04-02T17:35:00Z,27.4980,-83.7220,100.7,1111122 
COMPS,ioos:station:USF.COMPS:C12:1,2016-04-02T18:05:00Z,27.4980,-83.7220,100.15,1111122 
COMPS,ioos:station:USF.COMPS:C12:1,2016-04-02T18:35:00Z,27.4980,-83.7220,99.97,1111122 
COMPS,ioos:station:USF.COMPS:C12:1,2016-04-02T19:05:00Z,27.4980,-83.7220,100.64,1111122 
COMPS,ioos:station:USF.COMPS:C12:1,2016-04-02T19:35:00Z,27.4980,-83.7220,100.3,1111122 
COMPS,ioos:station:USF.COMPS:C12:1,2016-04-02T20:05:00Z,27.4980,-83.7220,99.52,1111122 
COMPS,ioos:station:USF.COMPS:C12:1,2016-04-02T20:35:00Z,27.4980,-83.7220,100.76,1111122 
COMPS,ioos:station:USF.COMPS:C12:1,2016-04-02T21:05:00Z,27.4980,-83.7220,100.55,1111122 
COMPS,ioos:station:USF.COMPS:C12:1,2016-04-02T21:35:00Z,27.4980,-83.7220,100.68,1111122 
COMPS,ioos:station:USF.COMPS:C12:1,2016-04-02T22:05:00Z,27.4980,-83.7220,100.96,1111122 
COMPS,ioos:station:USF.COMPS:C12:1,2016-04-02T22:35:00Z,27.4980,-83.7220,100.57,1111122 
COMPS,ioos:station:USF.COMPS:C12:1,2016-04-02T23:05:00Z,27.4980,-83.7220,100.0,1111122 
COMPS,ioos:station:USF.COMPS:C12:1,2016-04-02T23:35:00Z,27.4980,-83.7220,100.64,1111122 
COMPS,ioos:station:USF.COMPS:C12:1,2016-04-03T00:05:00Z,27.4980,-83.7220,100.68,1111122 
COMPS,ioos:station:USF.COMPS:C12:1,2016-04-03T00:35:00Z,27.4980,-83.7220,100.39,1111122 
COMPS,ioos:station:USF.COMPS:C12:1,2016-04-03T01:05:00Z,27.4980,-83.7220,100.85,1111122 
COMPS,ioos:station:USF.COMPS:C12:1,2016-04-03T01:35:00Z,27.4980,-83.7220,100.56,1111122 
COMPS,ioos:station:USF.COMPS:C12:1,2016-04-03T02:05:00Z,27.4980,-83.7220,100.13,1111122 
COMPS,ioos:station:USF.COMPS:C12:1,2016-04-03T02:35:00Z,27.4980,-83.7220,100.79,1111122 
COMPS,ioos:station:USF.COMPS:C12:1,2016-04-03T03:05:00Z,27.4980,-83.7220,100.94,1111122 
COMPS,ioos:station:USF.COMPS:C12:1,2016-04-03T03:35:00Z,27.4980,-83.7220,100.91,1111122 
COMPS,ioos:station:USF.COMPS:C12:1,2016-04-03T04:05:00Z,27.4980,-83.7220,101.3,1111122 
COMPS,ioos:station:USF.COMPS:C12:1,2016-04-03T04:35:00Z,27.4980,-83.7220,101.0,1111122 
COMPS,ioos:station:USF.COMPS:C12:1,2016-04-03T05:05:00Z,27.4980,-83.7220,101.55,1111122 
COMPS,ioos:station:USF.COMPS:C12:1,2016-04-03T05:35:00Z,27.4980,-83.7220,101.93,1111122 
COMPS,ioos:station:USF.COMPS:C12:1,2016-04-03T06:05:00Z,27.4980,-83.7220,101.8,1111122 
COMPS,ioos:station:USF.COMPS:C12:1,2016-04-03T06:35:00Z,27.4980,-83.7220,101.79,1111122 
COMPS,ioos:station:USF.COMPS:C12:1,2016-04-03T07:05:00Z,27.4980,-83.7220,101.67,1111122 
COMPS,ioos:station:USF.COMPS:C12:1,2016-04-03T07:35:00Z,27.4980,-83.7220,101.5,1111122 
COMPS,ioos:station:USF.COMPS:C12:1,2016-04-03T08:05:00Z,27.4980,-83.7220,101.07,1111122 
COMPS,ioos:station:USF.COMPS:C12:1,2016-04-03T08:35:00Z,27.4980,-83.7220,101.48,1111122 
COMPS,ioos:station:USF.COMPS:C12:1,2016-04-03T09:05:00Z,27.4980,-83.7220,101.37,1111122 
COMPS,ioos:station:USF.COMPS:C12:1,2016-04-03T09:35:00Z,27.4980,-83.7220,101.21,1111122 
COMPS,ioos:station:USF.COMPS:C12:1,2016-04-03T10:05:00Z,27.4980,-83.7220,101.42,1111122 
COMPS,ioos:station:USF.COMPS:C12:1,2016-04-03T10:35:00Z,27.4980,-83.7220,101.38,1111122 
COMPS,ioos:station:USF.COMPS:C12:1,2016-04-03T11:05:00Z,27.4980,-83.7220,100.98,1111122 
COMPS,ioos:station:USF.COMPS:C12:1,2016-04-03T11:35:00Z,27.4980,-83.7220,100.67,1111122 
COMPS,ioos:station:USF.COMPS:C12:1,2016-04-03T12:05:00Z,27.4980,-83.7220,100.77,1111122 
COMPS,ioos:station:USF.COMPS:C12:1,2016-04-03T12:35:00Z,27.4980,-83.7220,100.71,1111122 
COMPS,ioos:station:USF.COMPS:C12:1,2016-04-03T13:05:00Z,27.4980,-83.7220,100.5,1111122 
COMPS,ioos:station:USF.COMPS:C12:1,2016-04-03T13:35:00Z,27.4980,-83.7220,100.78,1111122 
COMPS,ioos:station:USF.COMPS:C12:1,2016-04-03T14:05:00Z,27.4980,-83.7220,100.79,1111122 
COMPS,ioos:station:USF.COMPS:C12:1,2016-04-03T14:35:00Z,27.4980,-83.7220,100.8,1111122 
COMPS,ioos:station:USF.COMPS:C12:1,2016-04-03T15:05:00Z,27.4980,-83.7220,100.67,1111122 
COMPS,ioos:station:USF.COMPS:C12:1,2016-04-03T15:35:00Z,27.4980,-83.7220,100.63,1111122 
COMPS,ioos:station:USF.COMPS:C12:1,2016-04-03T16:05:00Z,27.4980,-83.7220,100.65,1111122 
COMPS,ioos:station:USF.COMPS:C12:1,2016-04-03T16:35:00Z,27.4980,-83.7220,100.33,1111122 
COMPS,ioos:station:USF.COMPS:C12:1,2016-04-03T17:05:00Z,27.4980,-83.7220,100.67,1111122 
COMPS,ioos:station:USF.COMPS:C12:1,2016-04-03T17:35:00Z,27.4980,-83.7220,100.42,1111122 
COMPS,ioos:station:USF.COMPS:C12:1,2016-04-03T18:05:00Z,27.4980,-83.7220,101.32,1111122 
COMPS,ioos:station:USF.COMPS:C12:1,2016-04-03T18:35:00Z,27.4980,-83.7220,99.83,1111122 
COMPS,ioos:station:USF.COMPS:C12:1,2016-04-03T19:05:00Z,27.4980,-83.7220,101.03,1111122 
COMPS,ioos:station:USF.COMPS:C12:1,2016-04-03T19:35:00Z,27.4980,-83.7220,100.98,1111122 
COMPS,ioos:station:USF.COMPS:C12:1,2016-04-03T20:05:00Z,27.4980,-83.7220,100.8,1111122 
COMPS,ioos:station:USF.COMPS:C12:1,2016-04-03T20:35:00Z,27.4980,-83.7220,100.97,1111122 
COMPS,ioos:station:USF.COMPS:C12:1,2016-04-03T21:05:00Z,27.4980,-83.7220,100.87,1111122 
COMPS,ioos:station:USF.COMPS:C12:1,2016-04-03T21:35:00Z,27.4980,-83.7220,100.82,1111122 
COMPS,ioos:station:USF.COMPS:C12:1,2016-04-03T22:05:00Z,27.4980,-83.7220,100.04,1111122 
COMPS,ioos:station:USF.COMPS:C12:1,2016-04-03T22:35:00Z,27.4980,-83.7220,100.46,1111122 
COMPS,ioos:station:USF.COMPS:C12:1,2016-04-03T23:05:00Z,27.4980,-83.7220,100.33,1111122 
COMPS,ioos:station:USF.COMPS:C12:1,2016-04-03T23:35:00Z,27.4980,-83.7220,99.82,1111122 
COMPS,ioos:station:USF.COMPS:C12:1,2016-04-04T00:05:00Z,27.4980,-83.7220,100.46,1111122 
COMPS,ioos:station:USF.COMPS:C12:1,2016-04-04T00:35:00Z,27.4980,-83.7220,100.73,1111122 
COMPS,ioos:station:USF.COMPS:C12:1,2016-04-04T01:05:00Z,27.4980,-83.7220,100.77,1111122 
COMPS,ioos:station:USF.COMPS:C12:1,2016-04-04T01:35:00Z,27.4980,-83.7220,100.61,1111122 
COMPS,ioos:station:USF.COMPS:C12:1,2016-04-04T02:05:00Z,27.4980,-83.7220,100.63,1111122 
COMPS,ioos:station:USF.COMPS:C12:1,2016-04-04T02:35:00Z,27.4980,-83.7220,100.74,1111122 
COMPS,ioos:station:USF.COMPS:C12:1,2016-04-04T03:05:00Z,27.4980,-83.7220,100.75,1111122 
COMPS,ioos:station:USF.COMPS:C12:1,2016-04-04T03:35:00Z,27.4980,-83.7220,100.74,1111122 
COMPS,ioos:station:USF.COMPS:C12:1,2016-04-04T04:05:00Z,27.4980,-83.7220,99.98,1111122 
COMPS,ioos:station:USF.COMPS:C12:1,2016-04-04T04:35:00Z,27.4980,-83.7220,100.44,1111122 
COMPS,ioos:station:USF.COMPS:C12:1,2016-04-04T05:05:00Z,27.4980,-83.7220,100.38,1111122 
COMPS,ioos:station:USF.COMPS:C12:1,2016-04-04T05:35:00Z,27.4980,-83.7220,100.76,1111122 
COMPS,ioos:station:USF.COMPS:C12:1,2016-04-04T06:05:00Z,27.4980,-83.7220,100.75,1111122 
COMPS,ioos:station:USF.COMPS:C12:1,2016-04-04T06:35:00Z,27.4980,-83.7220,100.65,1111122 
COMPS,ioos:station:USF.COMPS:C12:1,2016-04-04T07:05:00Z,27.4980,-83.7220,100.73,1111122 
COMPS,ioos:station:USF.COMPS:C12:1,2016-04-04T07:35:00Z,27.4980,-83.7220,100.21,1111122 
COMPS,ioos:station:USF.COMPS:C12:1,2016-04-04T08:05:00Z,27.4980,-83.7220,100.13,1111122 
COMPS,ioos:station:USF.COMPS:C12:1,2016-04-04T08:35:00Z,27.4980,-83.7220,100.74,1111122 
COMPS,ioos:station:USF.COMPS:C12:1,2016-04-04T09:05:00Z,27.4980,-83.7220,100.0,1111122 
COMPS,ioos:station:USF.COMPS:C12:1,2016-04-04T09:35:00Z,27.4980,-83.7220,100.62,1111122 
COMPS,ioos:station:USF.COMPS:C12:1,2016-04-04T10:05:00Z,27.4980,-83.7220,100.71,1111122 
COMPS,ioos:station:USF.COMPS:C12:1,2016-04-04T10:35:00Z,27.4980,-83.7220,100.35,1111122 
COMPS,ioos:station:USF.COMPS:C12:1,2016-04-04T11:05:00Z,27.4980,-83.7220,100.72,1111122 
COMPS,ioos:station:USF.COMPS:C12:1,2016-04-04T11:35:00Z,27.4980,-83.7220,100.38,1111122 
COMPS,ioos:station:USF.COMPS:C12:1,2016-04-04T12:05:00Z,27.4980,-83.7220,100.33,1111122 
COMPS,ioos:station:USF.COMPS:C12:1,2016-04-04T12:35:00Z,27.4980,-83.7220,100.71,1111122 
COMPS,ioos:station:USF.COMPS:C12:1,2016-04-04T13:05:00Z,27.4980,-83.7220,100.7,1111122 
COMPS,ioos:station:USF.COMPS:C12:1,2016-04-04T13:35:00Z,27.4980,-83.7220,99.92,1111122 
COMPS,ioos:station:USF.COMPS:C12:1,2016-04-04T14:05:00Z,27.4980,-83.7220,100.22,1111122 
COMPS,ioos:station:USF.COMPS:C12:1,2016-04-04T14:35:00Z,27.4980,-83.7220,98.43,1111122 
COMPS,ioos:station:USF.COMPS:C12:1,2016-04-04T15:05:00Z,27.4980,-83.7220,100.09,1111122 
COMPS,ioos:station:USF.COMPS:C12:1,2016-04-04T15:35:00Z,27.4980,-83.7220,99.04,1111122 
COMPS,ioos:station:USF.COMPS:C12:1,2016-04-04T16:05:00Z,27.4980,-83.7220,98.72,1111122 
COMPS,ioos:station:USF.COMPS:C12:1,2016-04-04T16:35:00Z,27.4980,-83.7220,99.98,1111122 
COMPS,ioos:station:USF.COMPS:C12:1,2016-04-04T17:05:00Z,27.4980,-83.7220,99.95,1111122 
COMPS,ioos:station:USF.COMPS:C12:1,2016-04-04T17:35:00Z,27.4980,-83.7220,99.6,1111122 
COMPS,ioos:station:USF.COMPS:C12:1,2016-04-04T18:05:00Z,27.4980,-83.7220,100.25,1111122 
COMPS,ioos:station:USF.COMPS:C12:1,2016-04-04T18:35:00Z,27.4980,-83.7220,99.91,1111122 
COMPS,ioos:station:USF.COMPS:C12:1,2016-04-04T19:05:00Z,27.4980,-83.7220,100.42,1111122 
COMPS,ioos:station:USF.COMPS:C12:1,2016-04-04T19:35:00Z,27.4980,-83.7220,99.67,1111122 
COMPS,ioos:station:USF.COMPS:C12:1,2016-04-04T20:05:00Z,27.4980,-83.7220,99.5,1111122 
COMPS,ioos:station:USF.COMPS:C12:1,2016-04-04T20:35:00Z,27.4980,-83.7220,99.9,1111122 
COMPS,ioos:station:USF.COMPS:C12:1,2016-04-04T21:05:00Z,27.4980,-83.7220,98.35,1111122 
COMPS,ioos:station:USF.COMPS:C12:1,2016-04-04T21:35:00Z,27.4980,-83.7220,99.43,1111122 
COMPS,ioos:station:USF.COMPS:C12:1,2016-04-04T22:05:00Z,27.4980,-83.7220,98.72,1111122 
COMPS,ioos:station:USF.COMPS:C12:1,2016-04-04T22:35:00Z,27.4980,-83.7220,99.52,1111122 
COMPS,ioos:station:USF.COMPS:C12:1,2016-04-04T23:05:00Z,27.4980,-83.7220,98.65,1111122 
COMPS,ioos:station:USF.COMPS:C12:1,2016-04-04T23:35:00Z,27.4980,-83.7220,99.19,1111122 
COMPS,ioos:station:USF.COMPS:C12:1,2016-04-05T00:05:00Z,27.4980,-83.7220,100.76,1111122 
COMPS,ioos:station:USF.COMPS:C12:1,2016-04-05T00:35:00Z,27.4980,-83.7220,100.19,1111122 
COMPS,ioos:station:USF.COMPS:C12:1,2016-04-05T01:05:00Z,27.4980,-83.7220,99.64,1111122 
COMPS,ioos:station:USF.COMPS:C12:1,2016-04-05T01:35:00Z,27.4980,-83.7220,100.14,1111122 
COMPS,ioos:station:USF.COMPS:C12:1,2016-04-05T02:05:00Z,27.4980,-83.7220,100.48,1111122 
COMPS,ioos:station:USF.COMPS:C12:1,2016-04-05T02:35:00Z,27.4980,-83.7220,99.24,1111122 
COMPS,ioos:station:USF.COMPS:C12:1,2016-04-05T03:05:00Z,27.4980,-83.7220,100.19,1111122 
COMPS,ioos:station:USF.COMPS:C12:1,2016-04-05T03:35:00Z,27.4980,-83.7220,100.41,1111122 
COMPS,ioos:station:USF.COMPS:C12:1,2016-04-05T04:05:00Z,27.4980,-83.7220,100.58,1111122 
COMPS,ioos:station:USF.COMPS:C12:1,2016-04-05T04:35:00Z,27.4980,-83.7220,100.0,1111122 
COMPS,ioos:station:USF.COMPS:C12:1,2016-04-05T05:05:00Z,27.4980,-83.7220,100.12,1111122 
COMPS,ioos:station:USF.COMPS:C12:1,2016-04-05T05:35:00Z,27.4980,-83.7220,100.14,1111122 
COMPS,ioos:station:USF.COMPS:C12:1,2016-04-05T06:05:00Z,27.4980,-83.7220,100.96,1111122 
COMPS,ioos:station:USF.COMPS:C12:1,2016-04-05T06:35:00Z,27.4980,-83.7220,100.67,1111122 
COMPS,ioos:station:USF.COMPS:C12:1,2016-04-05T07:05:00Z,27.4980,-83.7220,100.33,1111122 
COMPS,ioos:station:USF.COMPS:C12:1,2016-04-05T07:35:00Z,27.4980,-83.7220,101.27,1111122 
COMPS,ioos:station:USF.COMPS:C12:1,2016-04-05T08:05:00Z,27.4980,-83.7220,100.85,1111122 
COMPS,ioos:station:USF.COMPS:C12:1,2016-04-05T08:35:00Z,27.4980,-83.7220,100.14,1111122 
COMPS,ioos:station:USF.COMPS:C12:1,2016-04-05T09:05:00Z,27.4980,-83.7220,100.73,1111122 
COMPS,ioos:station:USF.COMPS:C12:1,2016-04-05T09:35:00Z,27.4980,-83.7220,100.63,1111122 
COMPS,ioos:station:USF.COMPS:C12:1,2016-04-05T10:05:00Z,27.4980,-83.7220,101.0,1111122 
COMPS,ioos:station:USF.COMPS:C12:1,2016-04-05T10:35:00Z,27.4980,-83.7220,101.08,1111122 
COMPS,ioos:station:USF.COMPS:C12:1,2016-04-05T11:05:00Z,27.4980,-83.7220,100.97,1111122 
COMPS,ioos:station:USF.COMPS:C12:1,2016-04-05T11:35:00Z,27.4980,-83.7220,101.1,1111122 
COMPS,ioos:station:USF.COMPS:C12:1,2016-04-05T12:05:00Z,27.4980,-83.7220,100.15,1111122 
COMPS,ioos:station:USF.COMPS:C12:1,2016-04-05T12:35:00Z,27.4980,-83.7220,99.54,1111122 
COMPS,ioos:station:USF.COMPS:C12:1,2016-04-05T13:05:00Z,27.4980,-83.7220,100.73,1111122 
COMPS,ioos:station:USF.COMPS:C12:1,2016-04-05T13:35:00Z,27.4980,-83.7220,100.52,1111122 
COMPS,ioos:station:USF.COMPS:C12:1,2016-04-05T14:05:00Z,27.4980,-83.7220,99.99,1111122 
COMPS,ioos:station:USF.COMPS:C12:1,2016-04-05T14:35:00Z,27.4980,-83.7220,100.01,1111122 
COMPS,ioos:station:USF.COMPS:C12:1,2016-04-05T15:05:00Z,27.4980,-83.7220,100.24,1111122 
COMPS,ioos:station:USF.COMPS:C12:1,2016-04-05T15:35:00Z,27.4980,-83.7220,99.05,1111122 
COMPS,ioos:station:USF.COMPS:C12:1,2016-04-05T16:05:00Z,27.4980,-83.7220,99.4,1111122 
COMPS,ioos:station:USF.COMPS:C12:1,2016-04-05T16:35:00Z,27.4980,-83.7220,100.46,1111122 
COMPS,ioos:station:USF.COMPS:C12:1,2016-04-05T17:05:00Z,27.4980,-83.7220,100.4,1111122 
COMPS,ioos:station:USF.COMPS:C12:1,2016-04-05T17:35:00Z,27.4980,-83.7220,99.93,1111122 
COMPS,ioos:station:USF.COMPS:C12:1,2016-04-05T18:05:00Z,27.4980,-83.7220,99.72,1111122 
COMPS,ioos:station:USF.COMPS:C12:1,2016-04-05T18:35:00Z,27.4980,-83.7220,100.0,1111122 
COMPS,ioos:station:USF.COMPS:C12:1,2016-04-05T19:05:00Z,27.4980,-83.7220,99.41,1111122 
COMPS,ioos:station:USF.COMPS:C12:1,2016-04-05T19:35:00Z,27.4980,-83.7220,100.17,1111122 
COMPS,ioos:station:USF.COMPS:C12:1,2016-04-05T21:05:00Z,27.4980,-83.7220,99.83,1111122 
COMPS,ioos:station:USF.COMPS:C12:1,2016-04-05T21:35:00Z,27.4980,-83.7220,100.06,1111122 
COMPS,ioos:station:USF.COMPS:C12:1,2016-04-05T22:05:00Z,27.4980,-83.7220,100.86,1111122 
COMPS,ioos:station:USF.COMPS:C12:1,2016-04-05T22:35:00Z,27.4980,-83.7220,100.31,1111122 
COMPS,ioos:station:USF.COMPS:C12:1,2016-04-05T23:05:00Z,27.4980,-83.7220,100.42,1111122 
COMPS,ioos:station:USF.COMPS:C12:1,2016-04-05T23:35:00Z,27.4980,-83.7220,99.41,1111122 
COMPS,ioos:station:USF.COMPS:C12:1,2016-04-06T00:05:00Z,27.4980,-83.7220,99.52,1111122 
COMPS,ioos:station:USF.COMPS:C12:1,2016-04-06T00:35:00Z,27.4980,-83.7220,99.68,1111122 
COMPS,ioos:station:USF.COMPS:C12:1,2016-04-06T01:05:00Z,27.4980,-83.7220,99.73,1111122 
COMPS,ioos:station:USF.COMPS:C12:1,2016-04-06T01:35:00Z,27.4980,-83.7220,100.87,1111122 
COMPS,ioos:station:USF.COMPS:C12:1,2016-04-06T02:05:00Z,27.4980,-83.7220,98.75,1111122 
COMPS,ioos:station:USF.COMPS:C12:1,2016-04-06T02:35:00Z,27.4980,-83.7220,100.22,1111122 
COMPS,ioos:station:USF.COMPS:C12:1,2016-04-06T03:05:00Z,27.4980,-83.7220,99.99,1111122 
COMPS,ioos:station:USF.COMPS:C12:1,2016-04-06T03:35:00Z,27.4980,-83.7220,99.88,1111122 
COMPS,ioos:station:USF.COMPS:C12:1,2016-04-06T04:05:00Z,27.4980,-83.7220,100.7,1111122 
COMPS,ioos:station:USF.COMPS:C12:1,2016-04-06T04:35:00Z,27.4980,-83.7220,100.71,1111122 
COMPS,ioos:station:USF.COMPS:C12:1,2016-04-06T05:05:00Z,27.4980,-83.7220,100.38,1111122 
COMPS,ioos:station:USF.COMPS:C12:1,2016-04-06T05:35:00Z,27.4980,-83.7220,99.24,1111122 
COMPS,ioos:station:USF.COMPS:C12:1,2016-04-06T06:05:00Z,27.4980,-83.7220,99.87,1111122 
COMPS,ioos:station:USF.COMPS:C12:1,2016-04-06T06:35:00Z,27.4980,-83.7220,100.97,1111122 
COMPS,ioos:station:USF.COMPS:C12:1,2016-04-06T07:05:00Z,27.4980,-83.7220,99.75,1111122 
COMPS,ioos:station:USF.COMPS:C12:1,2016-04-06T07:35:00Z,27.4980,-83.7220,99.92,1111122 
COMPS,ioos:station:USF.COMPS:C12:1,2016-04-06T08:05:00Z,27.4980,-83.7220,100.79,1111122 
COMPS,ioos:station:USF.COMPS:C12:1,2016-04-06T08:35:00Z,27.4980,-83.7220,100.88,1111122 
COMPS,ioos:station:USF.COMPS:C12:1,2016-04-06T09:05:00Z,27.4980,-83.7220,100.5,1111122 
COMPS,ioos:station:USF.COMPS:C12:1,2016-04-06T09:35:00Z,27.4980,-83.7220,100.58,1111122 
COMPS,ioos:station:USF.COMPS:C12:1,2016-04-06T10:05:00Z,27.4980,-83.7220,100.75,1111122 
COMPS,ioos:station:USF.COMPS:C12:1,2016-04-06T10:35:00Z,27.4980,-83.7220,100.47,1111122 
COMPS,ioos:station:USF.COMPS:C12:1,2016-04-06T11:05:00Z,27.4980,-83.7220,99.19,1111122 
COMPS,ioos:station:USF.COMPS:C12:1,2016-04-06T11:35:00Z,27.4980,-83.7220,100.47,1111122 
COMPS,ioos:station:USF.COMPS:C12:1,2016-04-06T12:05:00Z,27.4980,-83.7220,100.36,1111122 
COMPS,ioos:station:USF.COMPS:C12:1,2016-04-06T12:35:00Z,27.4980,-83.7220,100.11,1111122 
COMPS,ioos:station:USF.COMPS:C12:1,2016-04-06T13:05:00Z,27.4980,-83.7220,100.35,1111122 
COMPS,ioos:station:USF.COMPS:C12:1,2016-04-06T13:35:00Z,27.4980,-83.7220,101.5,1111122 
COMPS,ioos:station:USF.COMPS:C12:1,2016-04-06T14:05:00Z,27.4980,-83.7220,100.09,1111122 
COMPS,ioos:station:USF.COMPS:C12:1,2016-04-06T14:35:00Z,27.4980,-83.7220,99.74,1111122 
COMPS,ioos:station:USF.COMPS:C12:1,2016-04-06T15:05:00Z,27.4980,-83.7220,99.97,1111122 
COMPS,ioos:station:USF.COMPS:C12:1,2016-04-06T15:35:00Z,27.4980,-83.7220,99.72,1111122 
COMPS,ioos:station:USF.COMPS:C12:1,2016-04-06T16:05:00Z,27.4980,-83.7220,99.97,1111122 
COMPS,ioos:station:USF.COMPS:C12:1,2016-04-06T16:35:00Z,27.4980,-83.7220,100.64,1111122 
COMPS,ioos:station:USF.COMPS:C12:1,2016-04-06T17:05:00Z,27.4980,-83.7220,99.49,1111122 
COMPS,ioos:station:USF.COMPS:C12:1,2016-04-06T17:35:00Z,27.4980,-83.7220,100.52,1111122 
COMPS,ioos:station:USF.COMPS:C12:1,2016-04-06T18:05:00Z,27.4980,-83.7220,99.58,1111122 
COMPS,ioos:station:USF.COMPS:C12:1,2016-04-06T18:35:00Z,27.4980,-83.7220,99.03,1111122 
COMPS,ioos:station:USF.COMPS:C12:1,2016-04-06T19:05:00Z,27.4980,-83.7220,99.08,1111122 
COMPS,ioos:station:USF.COMPS:C12:1,2016-04-06T19:35:00Z,27.4980,-83.7220,100.47,1111122 
COMPS,ioos:station:USF.COMPS:C12:1,2016-04-06T20:05:00Z,27.4980,-83.7220,100.35,1111122 